When you browse on this site, cookies collect data to enhance your experience and personalize the content and advertising you see.
Visit our Privacy Policy to learn more. By continuing to use the site, you agree to this use of cookies and data.
  • In United Kingdom
  • List of Countries
  • For 7 days
  • Water Temperature
  • Weather Map
  • Weather Widgets
  • user-avatar
    Login

    Hourly Weather Ruse

    Today, 19 October, Saturday

    Time Temperature Precipitation Wind Pressure Humidity
    00:00 +18°C° 0 mm 1 mps 757 mmHg 54%
    01:00 +18°C° 0 mm 1 mps 757 mmHg 55%
    02:00 +16°C° 0 mm 1 mps 757 mmHg 57%
    03:00 +16°C° 0 mm 1 mps 757 mmHg 58%
    04:00 +16°C° 0 mm 1 mps 757 mmHg 60%
    05:00 +14°C° 0 mm 0 mps 757 mmHg 61%
    06:00 +15°C° 0 mm 0 mps 758 mmHg 59%
    07:00 +16°C° 0 mm 0 mps 758 mmHg 57%
    08:00 +17°C° 0 mm 0 mps 758 mmHg 55%
    09:00 +19°C° 0 mm 0 mps 758 mmHg 49%
    10:00 +23°C° 0 mm 1 mps 758 mmHg 43%
    11:00 +25°C° 0 mm 1 mps 758 mmHg 37%
    12:00 +26°C° 0 mm 1 mps 758 mmHg 34%
    13:00 +27°C° 0 mm 1 mps 758 mmHg 31%
    14:00 +28°C° 0 mm 2 mps 757 mmHg 28%
    15:00 +27°C° 0 mm 2 mps 757 mmHg 30%
    16:00 +27°C° 0 mm 2 mps 757 mmHg 32%
    17:00 +26°C° 0 mm 2 mps 757 mmHg 33%
    18:00 +24°C° 0 mm 2 mps 757 mmHg 37%
    19:00 +23°C° 0 mm 2 mps 757 mmHg 41%
    20:00 +20°C° 0 mm 2 mps 758 mmHg 44%
    21:00 +20°C° 0 mm 2 mps 758 mmHg 48%
    22:00 +20°C° 0 mm 1 mps 758 mmHg 51%
    23:00 +20°C° 0 mm 1 mps 758 mmHg 55%

    Tomorrow, 20 October, Sunday

    Time Temperature Precipitation Wind Pressure Humidity
    00:00 +19°C° 0 mm 1 mps 759 mmHg 57%
    01:00 +19°C° 0 mm 1 mps 759 mmHg 59%
    02:00 +18°C° 0 mm 1 mps 759 mmHg 61%
    03:00 +18°C° 0 mm 1 mps 759 mmHg 62%
    04:00 +18°C° 0 mm 1 mps 759 mmHg 64%
    05:00 +15°C° 0 mm 0 mps 759 mmHg 65%
    06:00 +16°C° 0 mm 0 mps 759 mmHg 63%
    07:00 +17°C° 0 mm 0 mps 759 mmHg 61%
    08:00 +17°C° 0 mm 0 mps 759 mmHg 58%
    09:00 +20°C° 0 mm 0 mps 759 mmHg 52%
    10:00 +22°C° 0 mm 0 mps 759 mmHg 46%
    11:00 +24°C° 0 mm 0 mps 760 mmHg 40%
    12:00 +27°C° 0 mm 1 mps 759 mmHg 37%
    13:00 +28°C° 0 mm 1 mps 759 mmHg 34%
    14:00 +29°C° 0 mm 1 mps 759 mmHg 31%
    15:00 +28°C° 0 mm 2 mps 759 mmHg 33%
    16:00 +27°C° 0 mm 2 mps 758 mmHg 36%
    17:00 +26°C° 0 mm 2 mps 758 mmHg 38%
    18:00 +25°C° 0 mm 2 mps 759 mmHg 42%
    19:00 +23°C° 0 mm 2 mps 759 mmHg 47%
    20:00 +21°C° 0 mm 2 mps 760 mmHg 51%
    21:00 +21°C° 0 mm 1 mps 760 mmHg 54%
    22:00 +21°C° 0 mm 1 mps 760 mmHg 57%
    23:00 +20°C° 0 mm 1 mps 760 mmHg 60%

    Day after tomorrow, 21 October, Monday

    Time Temperature Precipitation Wind Pressure Humidity
    00:00 +20°C° 0 mm 1 mps 760 mmHg 61%
    01:00 +19°C° 0 mm 1 mps 760 mmHg 63%
    02:00 +19°C° 0 mm 1 mps 760 mmHg 65%
    03:00 +18°C° 0 mm 1 mps 760 mmHg 67%
    04:00 +18°C° 0 mm 1 mps 760 mmHg 69%
    05:00 +18°C° 0 mm 1 mps 760 mmHg 71%
    06:00 +16°C° 0 mm 0 mps 760 mmHg 68%
    07:00 +17°C° 0 mm 0 mps 760 mmHg 65%
    08:00 +18°C° 0 mm 0 mps 760 mmHg 63%
    09:00 +20°C° 0 mm 0 mps 760 mmHg 56%
    10:00 +22°C° 0 mm 0 mps 760 mmHg 49%
    11:00 +24°C° 0 mm 0 mps 760 mmHg 41%
    12:00 +27°C° 0 mm 1 mps 760 mmHg 38%
    13:00 +28°C° 0 mm 1 mps 760 mmHg 35%
    14:00 +29°C° 0 mm 2 mps 760 mmHg 32%
    15:00 +28°C° 0 mm 2 mps 760 mmHg 34%
    16:00 +27°C° 0 mm 2 mps 759 mmHg 35%
    17:00 +26°C° 0 mm 2 mps 759 mmHg 37%
    18:00 +24°C° 0 mm 2 mps 759 mmHg 40%
    19:00 +23°C° 0 mm 2 mps 760 mmHg 42%
    20:00 +20°C° 0 mm 2 mps 760 mmHg 44%
    21:00 +21°C° 0 mm 1 mps 760 mmHg 46%
    22:00 +20°C° 0 mm 1 mps 760 mmHg 48%
    23:00 +19°C° 0 mm 1 mps 760 mmHg 50%

    22 October, Tuesday

    Time Temperature Precipitation Wind Pressure Humidity
    00:00 +19°C° 0 mm 1 mps 760 mmHg 52%
    01:00 +19°C° 0 mm 1 mps 760 mmHg 54%
    02:00 +18°C° 0 mm 1 mps 760 mmHg 57%
    03:00 +18°C° 0 mm 1 mps 760 mmHg 59%
    04:00 +16°C° 0 mm 1 mps 760 mmHg 61%
    05:00 +16°C° 0 mm 1 mps 760 mmHg 63%
    06:00 +15°C° 0 mm 0 mps 760 mmHg 61%
    07:00 +16°C° 0 mm 0 mps 761 mmHg 60%
    08:00 +17°C° 0 mm 0 mps 761 mmHg 58%
    09:00 +19°C° 0 mm 0 mps 761 mmHg 52%
    10:00 +23°C° 0 mm 1 mps 761 mmHg 45%
    11:00 +25°C° 0 mm 1 mps 761 mmHg 38%
    12:00 +26°C° 0 mm 1 mps 761 mmHg 35%
    13:00 +27°C° 0 mm 1 mps 760 mmHg 32%
    14:00 +28°C° 0 mm 2 mps 760 mmHg 29%
    15:00 +27°C° 0 mm 2 mps 760 mmHg 31%
    16:00 +26°C° 0 mm 2 mps 760 mmHg 33%
    17:00 +25°C° 0 mm 2 mps 760 mmHg 35%
    18:00 +23°C° 0 mm 2 mps 760 mmHg 39%
    19:00 +21°C° 0 mm 2 mps 760 mmHg 43%
    20:00 +19°C° 0 mm 2 mps 760 mmHg 47%
    21:00 +19°C° 0 mm 2 mps 760 mmHg 48%
    22:00 +19°C° 0 mm 1 mps 761 mmHg 50%
    23:00 +19°C° 0 mm 1 mps 761 mmHg 52%

    23 October, Wednesday

    Time Temperature Precipitation Wind Pressure Humidity
    00:00 +18°C° 0 mm 1 mps 761 mmHg 53%
    01:00 +18°C° 0 mm 1 mps 761 mmHg 55%
    02:00 +16°C° 0 mm 1 mps 761 mmHg 56%
    03:00 +16°C° 0 mm 1 mps 760 mmHg 57%
    04:00 +15°C° 0 mm 1 mps 760 mmHg 58%
    05:00 +15°C° 0 mm 1 mps 760 mmHg 60%
    06:00 +15°C° 0 mm 1 mps 761 mmHg 57%
    07:00 +16°C° 0 mm 1 mps 761 mmHg 55%
    08:00 +16°C° 0 mm 1 mps 761 mmHg 53%
    09:00 +19°C° 0 mm 1 mps 761 mmHg 45%
    10:00 +22°C° 0 mm 1 mps 761 mmHg 37%
    11:00 +24°C° 0 mm 2 mps 761 mmHg 29%
    12:00 +25°C° 0 mm 2 mps 760 mmHg 26%
    13:00 +26°C° 0 mm 3 mps 760 mmHg 24%
    14:00 +27°C° 0 mm 3 mps 760 mmHg 21%
    15:00 +26°C° 0 mm 3 mps 760 mmHg 23%
    16:00 +24°C° 0 mm 3 mps 760 mmHg 26%
    17:00 +22°C° 0 mm 3 mps 759 mmHg 28%
    18:00 +21°C° 0 mm 3 mps 760 mmHg 31%
    19:00 +19°C° 0 mm 3 mps 760 mmHg 35%
    20:00 +18°C° 0 mm 2 mps 760 mmHg 38%
    21:00 +17°C° 0 mm 2 mps 760 mmHg 41%
    22:00 +16°C° 0 mm 2 mps 760 mmHg 45%
    23:00 +16°C° 0 mm 1 mps 760 mmHg 48%

    24 October, Thursday

    Time Temperature Precipitation Wind Pressure Humidity
    00:00 +15°C° 0 mm 1 mps 760 mmHg 50%
    01:00 +14°C° 0 mm 1 mps 760 mmHg 52%
    02:00 +14°C° 0 mm 1 mps 760 mmHg 54%
    03:00 +13°C° 0 mm 1 mps 760 mmHg 55%
    04:00 +13°C° 0 mm 1 mps 760 mmHg 56%
    05:00 +12°C° 0 mm 1 mps 760 mmHg 57%
    06:00 +13°C° 0 mm 1 mps 760 mmHg 56%
    07:00 +13°C° 0 mm 1 mps 760 mmHg 54%
    08:00 +14°C° 0 mm 1 mps 760 mmHg 53%
    09:00 +16°C° 0 mm 1 mps 760 mmHg 45%
    10:00 +20°C° 0 mm 1 mps 760 mmHg 37%
    11:00 +21°C° 0 mm 2 mps 760 mmHg 30%
    12:00 +24°C° 0 mm 2 mps 759 mmHg 27%
    13:00 +25°C° 0 mm 2 mps 759 mmHg 23%
    14:00 +26°C° 0 mm 3 mps 759 mmHg 20%
    15:00 +25°C° 0 mm 3 mps 758 mmHg 23%
    16:00 +24°C° 0 mm 2 mps 758 mmHg 26%
    17:00 +21°C° 0 mm 2 mps 758 mmHg 29%
    18:00 +20°C° 0 mm 2 mps 758 mmHg 34%
    19:00 +19°C° 0 mm 2 mps 759 mmHg 39%
    20:00 +17°C° 0 mm 2 mps 759 mmHg 44%
    21:00 +17°C° 0 mm 2 mps 759 mmHg 48%
    22:00 +16°C° 0 mm 2 mps 759 mmHg 52%
    23:00 +16°C° 0 mm 1 mps 759 mmHg 56%
    Show more